Location: Unspecified
(0.0000°N, 0.0000°E)
Time: 12:44:22
(UTC+00:00)

Tiangong 1 - Visible Passes

Search period start: 20 September 2017 00:00
Search period end: 30 September 2017 00:00
Orbit: 304 x 329 km, 42.8° (Epoch: 20 September)

Date Brightness Start Highest point End Pass type
(mag) Time Alt. Az. Time Alt. Az. Time Alt. Az.
25 Sep 3.4 18:52:57 10° SSE 18:53:01 10° SSE 18:53:01 10° SSE visible
26 Sep 1.9 19:04:43 10° SW 19:06:31 34° SSW 19:06:31 34° SSW visible
27 Sep 3.0 19:18:03 10° WSW 19:19:58 24° WNW 19:19:58 24° WNW visible
29 Sep 3.7 05:15:37 10° NNE 05:16:59 13° NE 05:18:21 10° ENE visible
29 Sep 2.0 18:08:23 10° WSW 18:10:58 40° NW 18:13:31 10° NNE visible
